Theta_e
317 317 317 319 317 318 322 321 318 320 324 322 315 313 314 312 313 315 313 317 327 333 337 342 342 342 343 342 342 342 344 346 346 347 348 348 349 351 352 354 354 355 357 356 355 354 354 354 355 355 355 355 357 359 361 362 363 363 362 361 361 360 360
317 317 317 318 318 318 319 317 318 322 323 322 318 315 315 313 313 315 312 316 322 321 328 341 344 343 344 343 342 342 342 344 345 346 347 347 348 348 349 352 353 355 357 357 356 355 354 355 355 355 355 355 357 358 360 361 362 362 362 361 361 360 360
316 317 317 317 318 319 319 318 321 321 317 316 317 315 315 313 313 314 313 316 322 323 329 340 343 343 344 343 342 342 341 342 343 344 345 346 347 347 348 350 352 354 357 357 357 355 354 354 355 355 355 355 357 358 358 359 360 361 361 360 360 360 360
317 318 317 314 315 318 319 319 321 322 317 315 316 315 315 313 311 314 316 317 324 332 337 341 342 343 343 342 342 341 340 341 341 342 344 345 346 347 349 349 350 352 355 356 356 356 355 354 354 355 355 355 356 357 357 357 358 359 359 359 359 360 359
315 315 315 314 315 316 317 317 316 318 318 318 318 316 315 313 311 314 316 318 327 337 341 340 342 342 340 340 341 340 339 339 340 340 342 344 345 346 348 350 349 351 354 356 355 356 355 354 353 354 354 354 355 355 356 356 356 358 358 358 359 359 359
313 313 314 314 315 315 316 316 315 316 317 316 316 315 315 314 313 314 314 320 331 338 339 339 340 339 338 339 339 338 337 338 338 338 339 341 343 344 346 347 347 350 354 355 355 355 355 354 354 354 354 354 354 354 355 355 355 356 356 357 357 359 359
313 313 314 314 313 315 317 316 317 318 318 316 314 314 315 313 314 315 314 322 335 338 336 339 338 337 337 337 338 338 336 335 336 336 336 338 340 341 342 343 344 347 350 353 354 355 355 355 354 354 353 353 354 354 354 354 354 355 355 355 357 358 359
315 314 315 315 314 315 316 316 317 317 317 318 316 318 319 314 313 314 313 322 334 336 336 338 335 336 337 335 336 336 334 334 334 334 334 335 337 338 338 340 342 345 345 346 349 352 355 356 355 354 354 353 353 353 353 353 354 354 354 354 355 357 359
314 314 315 315 314 315 315 315 316 316 317 319 318 320 322 317 317 317 313 320 333 336 336 337 335 335 336 334 335 334 333 333 332 331 332 332 334 335 336 337 339 340 342 343 344 346 350 353 354 354 354 353 353 353 352 353 353 353 354 354 354 356 358
314 316 316 314 314 315 315 314 315 315 315 317 318 319 317 316 320 322 318 324 336 339 337 337 335 335 335 334 334 333 333 332 331 330 330 329 331 332 332 334 334 336 338 339 341 343 345 349 352 353 353 353 352 352 352 353 353 353 354 354 354 355 356
316 318 318 316 315 314 314 313 314 314 314 316 318 317 316 317 320 321 323 332 338 338 337 338 335 334 334 333 333 332 332 331 330 329 328 328 328 329 330 331 331 333 335 336 338 340 342 345 348 351 353 353 353 353 352 352 352 352 352 353 353 354 355
316 317 316 315 315 314 314 313 313 313 314 316 317 316 317 320 319 319 325 332 334 334 336 336 334 334 333 332 331 331 331 331 329 329 328 327 327 326 327 328 329 331 331 334 336 337 339 342 345 347 350 352 353 355 354 352 351 351 352 351 353 354 354
314 315 314 313 314 314 313 313 312 313 313 314 315 315 316 319 319 319 323 327 330 333 333 332 333 333 332 331 331 329 329 329 329 328 328 327 326 326 326 327 328 328 328 331 334 335 337 339 341 344 347 349 352 353 354 354 352 351 351 352 352 353 354
313 313 312 312 312 312 312 312 312 312 313 313 314 314 314 317 318 319 322 325 329 331 330 331 332 331 331 330 330 330 329 328 329 328 327 327 326 326 326 326 326 326 327 330 331 333 334 335 337 340 342 345 349 351 353 354 354 352 350 351 352 353 354
312 312 312 311 311 311 310 311 311 311 312 312 312 313 315 316 316 317 320 323 326 328 329 330 330 329 331 330 330 330 329 327 327 328 327 326 326 326 326 327 326 325 326 328 329 331 332 333 334 337 338 341 345 349 352 353 354 354 351 350 351 353 353
312 311 311 310 310 310 308 309 311 311 311 312 313 317 320 320 319 318 316 318 325 329 329 329 329 329 330 330 329 330 329 327 327 327 326 326 326 326 327 327 326 325 325 326 327 329 331 332 332 333 335 338 341 344 348 352 353 354 354 352 350 351 353
312 311 310 311 310 309 309 310 312 312 313 314 316 320 324 324 324 321 317 320 327 330 328 329 330 328 329 329 328 327 328 327 326 325 325 325 325 326 326 326 326 326 326 326 326 328 330 331 331 331 333 335 337 339 343 349 353 354 355 355 355 354 352
313 311 311 312 310 309 311 313 313 315 316 316 318 321 324 325 324 324 324 325 328 326 326 328 328 327 328 327 326 324 325 326 325 325 324 324 324 325 325 326 327 328 328 327 326 327 328 329 329 330 331 333 336 338 342 347 351 354 356 356 357 358 355
313 313 313 313 312 312 314 315 314 316 318 320 321 324 324 324 324 325 326 325 325 325 325 325 326 326 326 325 325 324 322 324 325 324 323 323 322 322 323 325 326 327 327 327 327 327 327 327 328 329 331 333 335 338 341 345 348 351 355 356 356 358 358
315 314 312 313 314 315 314 313 314 316 317 319 322 324 323 323 323 324 325 325 325 325 324 324 324 324 324 325 326 323 321 321 323 323 322 321 321 321 322 323 324 325 326 326 327 327 326 326 328 329 330 332 334 336 339 343 345 346 349 352 353 355 357
316 314 312 314 316 315 313 315 317 318 318 320 321 322 323 323 322 321 324 325 325 324 323 323 322 322 324 326 326 323 320 319 320 322 322 321 321 322 322 322 323 322 323 325 326 326 326 326 327 328 329 331 333 335 337 340 342 343 343 345 346 348 350
316 314 313 314 314 314 318 320 318 318 319 320 320 318 319 323 322 321 322 324 323 323 322 322 322 322 324 327 326 322 319 318 319 320 321 321 321 321 321 321 322 321 322 323 324 324 325 325 326 327 329 331 332 334 336 337 339 340 340 340 340 343 345
316 315 314 314 314 316 321 321 318 317 316 317 318 317 317 322 322 320 320 321 321 321 321 321 322 323 323 325 325 320 317 317 318 319 320 320 320 319 319 320 320 321 322 322 322 322 324 325 325 326 328 330 331 333 334 335 337 338 338 338 338 339 341
316 316 315 314 315 318 321 319 317 316 316 317 319 319 320 322 320 318 319 319 318 319 319 319 321 322 322 322 320 317 316 317 317 318 318 318 319 319 318 318 319 320 321 321 321 321 322 323 323 325 327 328 330 332 333 334 336 336 335 336 337 338 339
316 316 315 314 315 318 319 318 316 316 316 317 318 320 321 321 319 318 319 318 317 318 318 318 319 319 319 318 316 315 315 316 316 316 316 317 317 317 317 318 318 318 319 320 320 320 321 321 322 323 325 328 329 330 331 333 334 334 334 335 336 337 338
316 316 315 315 315 318 318 317 317 316 315 316 318 320 320 319 318 319 318 317 317 317 317 317 318 317 316 315 314 314 314 315 315 316 316 316 316 317 317 317 317 317 318 319 319 320 319 319 320 321 323 327 329 329 330 331 331 332 333 335 336 336 337
315 315 315 314 315 318 318 317 317 316 315 316 318 319 318 318 317 318 317 316 317 316 316 316 316 315 315 314 314 314 314 314 315 315 315 316 316 316 316 316 316 317 317 317 318 318 319 319 320 321 322 325 328 329 329 330 330 330 332 333 334 335 337
313 313 314 315 315 318 317 315 315 317 317 318 319 318 316 316 316 316 315 316 316 315 315 315 314 314 314 314 314 314 313 314 315 314 315 315 315 315 315 315 316 316 317 317 317 317 318 319 321 321 322 323 326 327 329 329 329 330 331 332 333 335 336
314 314 316 317 316 317 316 314 314 316 317 318 318 317 315 315 315 315 315 315 315 315 314 313 313 313 313 313 313 313 312 313 314 314 314 314 314 314 314 315 315 316 316 317 317 317 317 319 320 321 322 322 323 326 328 328 329 329 330 331 332 333 335
315 315 316 316 315 314 315 314 314 315 316 316 315 315 314 314 314 314 314 314 313 314 313 313 313 313 313 313 313 312 313 313 314 314 314 314 314 314 314 314 315 316 316 316 317 317 318 318 320 321 321 321 321 323 326 327 327 328 329 330 331 332 334
316 315 315 315 314 314 314 314 314 315 315 315 314 314 313 313 313 313 313 313 312 312 313 313 313 313 313 313 313 313 313 313 314 314 314 314 314 314 314 314 315 316 316 317 317 318 318 319 319 320 321 321 320 320 323 325 326 327 328 329 330 331 332
316 316 316 316 315 315 314 313 313 314 315 314 314 313 313 313 314 314 314 313 312 312 312 313 313 313 313 313 313 313 313 314 314 314 314 314 314 314 314 315 315 316 316 317 317 318 319 319 319 319 320 320 320 320 321 323 326 327 328 328 329 330 331
316 316 316 316 316 315 315 314 313 313 313 314 314 313 313 313 314 314 314 313 313 312 312 313 313 312 312 312 313 312 312 313 314 313 313 313 313 314 314 314 314 315 315 316 317 317 318 319 319 319 319 320 321 321 322 324 326 327 328 328 328 329 330
315 316 316 316 316 316 315 315 314 313 313 313 313 314 314 313 313 313 313 313 313 313 312 312 312 311 311 312 312 311 312 312 312 312 312 312 313 313 313 313 314 314 314 315 315 316 316 317 318 318 318 319 320 321 322 325 325 325 326 328 328 328 329
315 316 316 315 316 315 315 315 314 314 313 313 313 314 314 313 313 314 313 313 313 312 311 311 311 311 311 311 311 311 311 311 310 311 311 311 311 312 312 312 312 313 313 313 314 315 315 316 317 318 319 319 320 321 322 324 325 324 325 325 327 328 328
316 315 315 316 317 316 315 314 314 314 314 314 313 314 314 314 314 314 313 313 312 311 311 311 311 311 311 310 310 310 310 310 310 310 310 310 310 310 311 311 312 312 313 313 313 314 314 315 316 317 318 319 320 321 322 324 325 324 324 324 325 326 327
316 315 315 317 317 315 315 314 314 314 315 314 314 314 314 314 314 314 313 313 312 311 311 311 310 310 310 309 309 309 309 308 309 309 309 310 310 310 311 311 312 312 312 312 313 313 314 314 315 316 317 318 320 321 322 323 324 324 324 324 324 324 325
Wind_Speed
1 2 1 3 5 4 6 8 9 4 1 4 3 2 6 9 8 8 8 6 7 8 8 7 6 8 11 12 12 12 13 13 11 10 9 9 7 4 6 10 14 15 18 21 23 24 25 25 26 26 25 25 25 24 23 24 24 24 24 24 24 24 23
5 2 1 2 2 4 3 7 7 4 1 4 4 3 6 9 7 7 11 11 9 7 5 5 8 10 13 13 13 13 14 14 13 12 11 11 11 11 9 7 11 14 16 20 21 22 24 25 25 26 26 26 25 24 24 25 25 24 24 24 23 23 23
6 3 3 5 4 2 3 1 4 4 4 7 6 5 6 9 9 7 12 12 6 2 1 6 9 11 13 12 13 13 15 15 13 13 13 12 12 10 10 9 8 11 15 19 20 21 22 23 24 25 26 26 25 25 25 25 26 25 25 24 23 23 23
6 3 2 3 5 4 3 3 4 4 4 5 6 7 6 7 9 8 9 10 5 4 3 6 8 10 11 11 12 12 14 14 13 13 13 12 11 10 9 7 8 9 12 17 19 21 21 22 23 24 25 26 25 25 25 24 24 25 25 25 24 24 23
7 3 3 4 3 1 4 6 6 5 4 3 3 7 5 5 7 8 9 9 5 5 3 5 7 8 8 9 10 10 11 12 12 13 13 12 11 10 11 7 4 7 10 15 17 17 17 20 22 23 24 25 25 24 23 24 24 24 25 24 23 23 23
4 5 6 5 6 6 3 1 1 2 4 4 5 8 7 5 5 4 7 7 6 5 2 4 6 7 7 9 9 9 10 12 12 13 13 13 13 11 13 13 9 6 3 8 12 16 18 19 20 22 23 23 24 24 24 23 24 24 24 24 23 22 22
6 8 4 3 3 4 4 4 3 2 2 3 6 6 6 7 5 4 5 5 7 4 1 4 6 7 7 8 9 9 10 11 12 13 14 14 14 14 15 15 14 15 15 12 5 5 15 18 17 18 21 22 22 23 24 23 24 25 24 24 23 23 22
6 6 3 1 1 2 1 4 5 3 2 2 4 4 3 6 6 3 7 5 6 3 1 3 6 8 8 8 9 10 10 10 12 13 14 14 15 16 16 15 15 17 20 22 20 15 6 9 16 17 17 19 20 22 22 23 24 25 24 23 23 23 23
6 6 5 4 2 1 2 4 5 5 5 3 4 3 3 5 1 2 7 4 6 4 4 5 7 9 9 9 10 10 10 10 11 12 13 13 14 15 17 17 17 18 20 19 19 21 19 9 5 13 16 17 18 19 21 22 22 23 23 23 23 24 24
6 5 4 2 3 4 3 4 5 6 7 5 3 2 5 5 1 2 3 4 8 7 7 7 7 8 9 10 10 10 10 10 11 11 12 12 13 15 17 17 17 17 17 19 20 20 21 19 13 7 10 16 18 18 19 20 20 20 20 21 23 23 23
2 3 4 4 2 3 4 4 5 5 7 7 4 3 4 2 3 3 4 7 13 11 9 8 7 7 8 9 9 9 10 10 11 10 10 12 12 13 15 16 17 17 16 18 21 22 21 20 19 16 9 5 11 15 18 19 18 18 20 21 22 22 22
6 7 7 5 3 3 4 3 3 4 6 6 5 1 2 3 2 4 5 6 12 12 9 8 7 7 8 8 9 9 9 9 10 10 11 13 14 14 15 16 17 17 17 17 19 21 22 21 20 18 17 14 10 6 10 16 18 19 20 21 22 22 21
6 6 6 4 3 3 2 2 2 3 3 3 4 4 4 5 2 5 7 5 7 10 9 8 7 6 7 8 8 8 8 9 10 11 12 14 15 15 16 16 16 16 15 16 19 20 20 21 22 20 18 17 15 11 7 8 14 17 18 18 20 21 20
5 4 4 3 3 1 0 1 2 1 2 1 2 2 2 3 3 6 8 6 7 8 7 8 7 5 6 7 7 8 9 10 10 11 12 13 14 15 15 15 15 15 15 16 19 20 20 21 21 20 19 19 15 10 6 6 7 13 16 17 19 20 20
4 2 2 1 2 2 1 0 1 1 1 2 2 1 1 1 2 4 5 5 5 5 6 7 5 3 4 6 7 8 9 10 11 11 12 13 13 14 14 14 14 14 15 18 19 20 21 21 20 19 18 18 17 12 8 5 5 8 13 17 19 19 20
4 3 1 0 1 3 4 4 3 3 3 2 2 2 1 1 2 5 5 4 4 6 5 6 4 2 3 5 7 8 8 10 11 11 12 12 12 13 13 13 14 13 14 16 19 20 20 20 20 19 18 17 16 15 14 10 8 8 10 14 18 20 20
4 4 1 2 3 5 5 3 3 2 2 2 2 3 2 0 1 3 3 2 6 6 4 4 4 2 2 4 6 6 7 9 10 11 11 11 12 12 12 13 13 13 13 15 17 18 18 19 20 19 17 17 17 16 16 15 11 9 9 10 12 15 19
3 4 2 3 5 5 3 5 4 2 1 1 2 3 4 2 1 1 3 5 7 4 2 3 4 3 3 4 4 6 7 7 8 10 10 11 11 11 11 12 13 13 14 15 17 18 18 19 20 20 17 16 18 18 17 16 13 10 9 8 8 8 14
2 3 4 5 4 2 5 6 4 2 2 0 1 3 3 2 2 3 4 5 5 3 2 2 3 3 2 2 2 5 8 7 7 9 9 10 11 11 11 11 12 14 15 16 17 18 18 19 20 20 19 18 19 18 17 16 14 11 8 6 5 5 6
1 3 5 3 2 4 5 4 4 2 1 2 3 4 5 4 3 4 4 6 5 2 1 1 2 3 1 2 3 4 7 7 7 8 8 9 10 10 11 12 13 14 15 16 16 15 16 18 19 19 19 20 19 18 17 16 15 14 11 7 5 3 1
2 3 4 1 2 4 6 5 4 2 1 1 1 2 5 7 5 4 4 6 5 2 2 1 2 4 2 4 4 6 7 7 7 7 8 9 10 10 11 12 12 14 15 14 15 14 14 16 17 18 19 19 18 16 15 14 13 13 12 12 11 6 1
2 3 3 2 3 3 4 6 6 3 2 3 1 4 3 8 7 4 4 6 5 3 3 2 2 4 5 5 4 6 6 7 7 8 8 10 11 11 12 12 12 14 15 14 14 14 14 15 16 16 18 19 18 16 15 14 13 12 12 12 12 9 4
3 4 4 3 4 1 5 7 7 5 2 2 2 5 4 7 7 3 4 5 5 3 2 2 3 5 7 5 4 5 7 8 8 8 8 10 12 12 12 12 13 14 14 13 14 14 14 15 15 15 15 18 18 17 16 15 14 13 14 14 13 10 7
2 3 4 3 2 2 6 6 6 6 4 2 5 6 3 5 5 3 3 4 4 3 3 3 3 5 5 1 5 8 10 11 11 10 10 11 12 13 13 13 13 14 13 12 14 14 13 14 15 15 14 15 16 17 17 16 15 15 16 16 15 13 10
3 4 4 4 1 4 7 7 7 6 4 4 6 3 4 5 5 4 3 3 3 3 4 4 3 3 4 6 8 10 11 12 12 13 13 12 12 13 13 13 13 13 12 12 14 14 13 13 14 14 13 13 14 16 16 17 17 17 17 17 17 15 13
3 3 3 4 1 4 6 7 7 5 4 4 1 2 5 5 4 4 3 2 1 2 4 3 3 3 4 6 7 8 9 10 12 14 15 14 14 13 13 13 13 12 12 13 14 14 13 13 13 13 14 13 13 13 14 16 18 18 17 17 16 16 15
3 3 4 5 2 4 7 8 6 6 6 1 4 4 3 3 2 2 3 3 2 3 4 4 4 5 5 6 6 7 8 9 10 13 14 15 15 15 15 14 14 13 13 13 14 14 14 13 13 13 13 13 12 13 13 14 16 18 18 17 16 16 15
4 4 3 1 1 5 9 6 2 3 3 2 3 1 1 1 3 3 3 3 3 3 4 5 5 6 6 6 5 5 7 8 10 12 14 15 16 16 16 16 15 14 14 14 14 14 14 12 12 12 12 12 12 13 13 13 13 15 16 16 16 16 15
4 4 2 3 4 5 6 4 2 1 2 2 1 2 3 3 5 5 4 4 3 3 4 6 6 6 6 6 6 6 7 8 9 11 13 15 16 17 17 17 17 16 16 16 16 16 14 12 12 11 11 12 13 14 14 13 13 13 13 14 15 15 15
3 6 6 4 3 4 5 5 4 2 3 3 3 3 4 4 4 4 4 4 4 3 4 5 6 7 7 7 8 8 8 8 10 11 13 14 16 18 18 18 17 17 18 18 17 17 15 13 13 12 11 12 13 14 14 14 14 13 13 13 13 14 15
2 4 4 5 6 6 6 6 6 6 6 6 4 4 5 4 4 4 4 5 5 5 5 6 7 7 8 8 9 8 8 9 10 11 12 14 15 17 18 18 18 18 18 18 18 18 17 15 14 13 13 13 14 14 14 14 15 15 14 14 13 12 14
6 6 4 2 4 4 5 6 6 6 8 7 6 6 5 4 5 5 5 6 6 6 6 6 7 8 8 9 10 9 8 9 11 11 12 14 15 17 18 18 18 18 18 18 18 19 18 17 15 15 15 14 15 15 14 14 14 15 15 14 14 13 14
9 9 9 7 7 8 9 10 9 8 7 7 6 6 6 6 6 6 7 7 7 7 7 6 7 9 10 10 11 11 10 10 12 13 14 15 16 17 17 18 18 18 18 19 20 20 20 19 17 17 16 16 15 15 14 13 12 13 14 15 15 14 14
8 6 6 6 7 8 7 8 10 10 9 8 8 7 8 8 8 7 7 8 8 8 9 9 10 10 11 12 14 13 12 13 14 16 16 17 17 17 18 18 18 18 19 20 21 22 21 20 19 18 18 18 17 16 15 13 11 12 14 15 15 14 13
8 6 6 5 6 7 7 5 7 9 9 9 9 9 8 8 8 8 7 7 7 8 10 11 12 11 12 15 16 15 15 17 18 18 18 18 18 19 19 19 19 20 20 21 22 23 23 22 21 20 18 18 17 16 15 14 13 13 13 15 15 14 13
9 9 9 7 6 8 9 7 7 7 8 8 9 9 8 8 7 8 7 7 7 8 9 11 13 13 14 17 18 17 18 20 20 20 20 20 21 21 21 20 21 22 22 23 24 24 24 23 22 21 19 18 17 16 16 16 15 14 14 15 15 14 13
9 10 9 8 8 9 9 8 8 8 8 8 7 7 7 7 7 7 7 7 9 9 9 11 14 15 16 17 19 19 20 21 22 22 22 23 22 21 21 21 22 23 24 24 25 25 24 24 24 23 22 20 19 18 17 17 17 16 16 17 17 16 14
Wind_Direction
44 349 333 272 265 221 177 196 209 195 277 263 248 197 189 202 196 178 182 150 107 134 130 82 57 52 44 34 29 27 24 23 24 23 14 1 345 293 237 218 212 209 203 199 196 196 194 193 194 195 195 193 191 189 188 189 190 190 190 191 192 195 196
102 29 273 178 268 279 213 196 190 145 44 272 263 217 184 199 199 175 185 171 140 168 169 57 30 28 28 23 25 25 23 23 21 19 15 5 354 339 321 276 222 206 206 206 201 200 199 195 194 194 194 194 192 192 191 190 191 192 193 194 195 195 195
126 150 217 176 165 261 300 272 168 169 216 213 218 230 193 194 203 186 184 178 145 144 127 37 20 18 16 14 21 23 21 20 17 15 13 9 3 349 335 311 251 210 205 208 205 205 204 200 198 196 194 194 195 196 196 195 194 194 195 197 197 196 197
158 168 232 186 158 175 235 244 195 207 242 215 206 223 210 203 209 193 181 179 140 75 49 30 27 25 16 14 22 23 20 19 16 15 12 10 9 1 347 313 260 227 207 206 208 208 207 206 202 198 196 196 197 199 199 200 199 197 198 198 196 196 199
184 160 50 31 33 103 205 210 196 191 220 247 228 220 225 241 225 199 191 187 133 83 52 33 42 41 27 24 26 26 22 19 17 18 15 14 14 10 6 352 278 240 216 205 207 208 212 214 207 200 199 199 200 202 202 203 202 201 202 202 199 198 199
156 100 61 35 16 6 356 237 197 202 221 224 214 208 210 245 264 238 207 182 117 87 56 51 57 52 45 36 31 33 28 21 20 20 17 19 18 16 15 15 14 2 288 214 205 203 210 216 211 204 202 201 202 203 203 204 203 204 205 204 202 200 200
101 102 83 33 15 2 16 40 25 322 270 245 231 220 204 210 235 279 243 173 111 100 87 76 75 67 61 50 41 41 35 26 23 20 18 20 19 19 20 20 22 23 19 17 14 215 211 213 214 211 207 206 206 204 204 204 204 205 206 205 203 200 200
105 125 135 47 333 271 143 60 31 353 341 322 293 312 288 218 200 228 238 185 118 126 171 95 90 77 70 63 52 48 43 32 25 23 21 20 19 19 23 25 25 25 24 23 19 9 341 222 214 215 212 212 212 209 206 206 206 206 205 204 203 200 200
155 167 177 178 189 202 108 68 38 20 17 344 295 306 277 236 197 283 247 189 114 143 170 128 100 83 70 64 60 53 49 40 29 26 24 23 22 21 23 26 27 26 25 23 17 11 9 7 235 224 221 218 217 213 210 210 208 208 207 204 202 201 202
184 184 178 162 152 139 106 67 47 33 19 356 317 244 219 217 135 340 279 135 117 138 150 129 106 91 74 64 62 58 54 50 42 34 27 24 25 25 26 26 26 27 25 21 17 13 11 15 10 327 243 225 222 217 214 214 211 209 211 210 205 203 204
66 95 76 44 42 135 120 72 52 36 18 0 327 250 217 214 164 105 60 113 135 138 137 129 108 87 75 63 56 55 51 50 50 44 37 34 31 27 28 29 27 25 23 20 17 14 11 12 12 8 0 281 242 227 219 218 213 209 211 213 211 207 207
56 66 71 56 43 80 86 66 50 35 20 3 345 358 53 350 245 146 91 124 146 136 128 125 101 78 72 60 50 48 45 45 47 46 44 42 36 30 27 27 26 23 20 18 16 14 13 11 10 11 14 10 351 304 244 228 219 213 211 212 212 210 210
74 64 65 59 52 69 72 44 46 36 17 8 21 51 49 360 352 117 110 122 139 134 130 113 85 65 63 60 50 44 42 44 45 43 43 42 37 33 27 23 22 20 18 15 12 13 14 12 10 9 9 9 7 359 331 269 237 224 215 212 213 211 211
94 69 64 54 28 33 126 86 74 48 8 27 38 31 27 16 45 102 118 122 121 122 119 103 90 71 63 61 51 44 39 38 41 41 41 41 37 34 29 23 20 17 15 13 9 10 12 12 10 9 6 2 358 354 348 325 277 242 226 218 217 214 211
120 82 69 63 357 329 266 237 130 154 178 195 198 195 186 187 145 125 136 146 134 117 108 110 110 86 64 50 39 42 37 31 37 41 39 37 35 32 29 26 21 16 13 11 8 6 6 6 7 7 4 360 356 352 337 318 302 268 242 227 223 222 219
143 122 150 227 315 275 245 223 192 185 200 193 162 140 160 221 157 150 179 197 144 118 123 130 123 109 89 47 28 34 35 28 31 37 36 34 31 28 25 24 22 18 14 10 7 5 1 360 0 359 357 357 357 352 340 320 292 273 257 237 227 226 227
140 132 209 274 253 241 226 176 139 166 190 167 143 140 133 33 251 188 193 139 95 98 129 134 113 113 104 60 31 26 31 29 28 32 34 31 29 28 23 19 20 18 15 11 5 1 360 358 354 350 350 353 350 344 338 329 306 280 268 258 247 235 229
145 138 207 250 239 227 145 94 86 80 91 185 191 162 136 135 251 4 53 78 92 95 106 96 73 43 54 74 61 44 37 28 24 29 31 27 26 26 21 18 17 13 11 11 5 359 358 357 353 349 349 351 348 342 339 337 325 300 279 275 281 260 234
154 143 206 232 231 153 99 94 95 77 40 308 154 127 126 146 152 112 96 101 105 88 52 63 42 18 49 133 121 63 49 36 24 23 26 24 21 20 18 17 15 10 6 6 5 1 358 355 353 352 350 349 348 346 345 346 342 328 309 282 275 272 235
191 180 211 223 112 118 132 129 128 135 182 199 184 175 171 172 181 176 151 126 118 123 125 91 342 340 1 189 174 88 59 45 33 21 17 17 16 14 12 11 10 10 6 2 1 360 357 355 354 352 350 349 348 346 346 350 354 354 351 341 319 312 153
240 236 221 171 116 166 178 161 142 150 148 141 247 251 173 161 179 206 172 140 141 189 195 170 318 321 285 212 162 100 64 42 33 23 12 6 5 7 4 2 4 5 2 359 356 355 357 359 355 351 350 349 347 346 345 347 351 357 0 360 1 10 31
243 274 253 213 223 209 155 124 113 96 63 75 359 300 209 165 164 196 193 164 160 197 218 227 292 291 254 219 148 84 44 24 17 11 5 356 354 357 355 351 354 357 356 354 351 350 355 0 356 350 349 348 347 346 347 344 344 349 353 355 3 10 346
226 260 261 241 244 183 108 115 123 128 120 120 219 258 227 156 138 155 205 186 173 199 237 266 282 264 239 199 110 44 7 3 357 350 351 347 344 345 343 344 349 347 344 344 344 346 353 356 353 350 350 349 348 347 346 343 344 348 349 347 348 347 336
230 247 259 259 263 101 115 132 137 128 122 179 231 238 204 140 138 151 195 194 181 202 244 263 265 256 248 272 22 360 343 343 339 334 336 335 334 334 333 339 345 338 333 336 339 342 349 349 347 349 351 349 347 346 343 341 343 346 344 341 338 333 328
224 228 249 259 256 104 129 150 143 131 155 219 240 233 126 138 158 149 163 193 187 205 243 260 267 275 291 316 335 335 329 327 324 323 325 324 324 326 327 332 334 327 326 331 331 332 339 339 340 345 347 345 344 343 341 339 340 340 337 334 332 330 327
242 239 254 260 251 108 136 154 141 151 209 232 226 111 119 141 152 144 172 216 201 220 252 271 281 290 300 305 310 314 317 318 316 317 320 322 322 323 324 326 324 320 322 324 322 324 329 332 335 339 339 339 338 337 337 337 334 332 331 329 328 326 325
242 241 235 252 270 112 138 154 154 187 223 215 85 120 141 142 155 186 226 245 254 264 274 285 291 295 298 297 300 306 309 310 312 315 318 319 320 321 321 320 321 321 318 315 314 318 321 324 328 330 330 332 330 327 330 332 329 328 328 327 324 323 324
222 232 211 209 76 122 150 170 191 212 205 104 81 158 205 215 238 253 262 259 258 277 288 291 293 296 295 294 299 304 305 308 311 312 314 315 315 316 316 317 320 320 315 311 310 311 312 314 318 320 321 321 319 318 321 324 324 324 325 325 323 321 322
241 276 306 67 84 130 168 209 282 296 168 155 179 274 286 274 262 264 270 268 259 258 275 286 289 289 292 300 306 305 305 308 309 309 310 311 310 311 311 312 315 314 311 308 307 304 304 306 307 307 307 308 308 310 314 317 319 319 319 321 320 317 317
267 277 266 241 229 212 206 228 243 221 206 205 213 254 268 267 265 258 257 270 274 259 262 275 281 288 297 302 304 306 307 306 306 307 307 306 306 307 307 308 311 311 308 305 304 303 302 301 300 297 295 296 300 303 306 309 312 314 316 317 314 312 311
255 256 233 225 243 241 231 236 232 217 222 227 228 249 259 257 256 250 246 258 261 254 256 265 274 286 296 298 300 305 306 305 306 306 304 304 304 303 304 305 306 305 303 302 301 301 301 300 298 294 290 289 292 296 298 301 306 310 313 312 309 309 308
238 256 261 243 243 242 241 245 238 224 226 229 226 232 240 240 239 239 242 247 250 252 257 264 275 286 291 296 300 303 304 305 307 305 302 302 300 299 299 300 300 299 298 297 298 298 298 298 297 294 288 285 286 289 290 293 299 305 307 307 307 307 305
240 252 259 249 241 240 235 230 232 236 236 228 220 219 222 226 228 230 234 236 242 257 268 274 282 287 290 294 299 301 303 304 304 303 303 300 297 296 296 295 295 293 292 293 294 293 293 293 294 292 287 283 283 283 282 280 285 293 299 302 303 304 303
246 248 255 255 255 260 249 222 219 226 227 223 221 216 215 221 222 223 229 232 238 253 265 272 278 283 288 293 296 298 300 301 302 302 302 299 296 294 293 291 290 288 287 289 290 289 290 290 288 287 284 280 278 277 275 270 269 277 286 294 297 298 300
268 281 290 286 270 275 285 268 231 223 218 218 218 216 216 220 216 217 226 236 245 257 265 272 278 284 289 293 296 298 298 300 302 302 300 298 296 294 292 289 287 286 285 285 286 286 287 287 285 283 281 278 274 271 268 263 261 263 270 279 287 291 293
276 283 292 299 280 267 274 275 254 228 210 210 215 213 212 213 210 212 223 238 257 270 277 280 281 285 290 293 295 297 298 300 302 301 299 298 295 293 290 287 285 284 283 282 282 283 284 284 282 281 280 277 272 268 264 260 258 257 258 264 272 281 287
271 276 287 295 281 272 272 267 252 227 205 207 217 213 206 209 217 220 230 252 267 273 278 282 284 288 293 294 294 295 297 299 300 301 300 298 295 291 288 284 282 281 280 280 280 280 280 280 280 279 277 275 271 267 262 258 255 253 253 256 260 267 276